HST 1 20580U 90037B 21019.18795139 .00000444 00000-0 15912-4 0 9994 2 20580 28.4710 332.6506 0002476 252.1106 296.1712 15.09537364488685 POLAR 1 23802U 96013A 21017.79694091 .00000228 00000-0 00000-0 0 9992 2 23802 78.7065 247.1652 6128114 276.2046 21.7449 1.29846405119194 SWAS 1 25560U 98071A 21018.85497524 .00000076 00000-0 15696-4 0 9993 2 25560 69.8973 201.6515 0007616 352.3598 7.7440 14.93987583201199 CXO 1 25867U 99040B 21020.01556094 .00000345 00000-0 00000-0 0 9997 2 25867 58.3870 260.6562 8086119 226.4016 0.2574 0.37802522 9884 XMM-NEWTON 1 25989U 99066A 21020.93958271 -.00000029 00000-0 00000+0 0 9993 2 25989 70.9934 315.4738 6799236 91.5930 0.3860 0.50135091 27478 TERRA 1 25994U 99068A 21019.20855949 .00000051 00000-0 21412-4 0 9996 2 25994 98.1928 96.2566 0001324 98.9047 283.0786 14.57121013121732 CLUSTER II-FM7 (SAMBA) 1 26410U 00041A 21020.46355187 .00000227 00000-0 00000+0 0 9992 2 26410 132.4072 343.3231 4679269 188.7116 359.1131 0.44211124 23308 CLUSTER II-FM6 (SALSA) 1 26411U 00041B 21020.53153199 .00000260 00000-0 00000+0 0 9997 2 26411 132.8120 344.8915 6093575 193.9048 358.9840 0.44219115 22611 CLUSTER II-FM5 (RUMBA) 1 26463U 00045A 21020.52959719 .00000309 00000-0 00000+0 0 9993 2 26463 136.4505 344.7442 5671816 193.9451 359.1185 0.44219093 23886 CLUSTER II-FM8 (TANGO) 1 26464U 00045B 21020.46302986 .00000227 00000-0 00000+0 0 9994 2 26464 132.4091 343.3170 4676806 188.6940 359.1365 0.44219232 59225 ODIN 1 26702U 01007A 21018.62105852 .00000252 00000-0 20302-4 0 9996 2 26702 97.5449 37.8756 0009488 247.7388 112.2834 15.08275844 88642 TIMED 1 26998U 01055B 21018.84627550 .00000093 00000-0 14075-4 0 9997 2 26998 74.0707 224.3929 0002205 256.1862 103.9073 14.88259911 36483 RHESSI 1 27370U 02004A 21018.83960148 .00002547 00000-0 79879-4 0 9998 2 27370 38.0329 300.0082 0013395 291.5975 68.3369 15.33948755 47408 INTEGRAL 1 27540U 02048A 21016.28746555 .00000490 00000-0 00000+0 0 9996 2 27540 59.8365 96.5552 8999576 297.0091 1.7175 0.37569377 19197 CORIOLIS 1 27640U 03001A 21018.89200404 -.00000017 00000-0 12586-4 0 9997 2 27640 98.7246 31.0118 0014899 134.7131 287.5335 14.19058639933994 SORCE 1 27651U 03004A 21018.84996475 .00000055 00000-0 19881-4 0 9993 2 27651 39.9937 208.7516 0020932 94.3750 265.9431 14.89221132976315 MOST 1 27843U 03031D 21018.86260291 -.00000024 00000-0 93569-5 0 9991 2 27843 98.7100 29.0109 0009847 186.4451 173.6601 14.20626735910188 SCISAT 1 1 27858U 03036A 21018.74428334 .00000027 00000-0 88823-5 0 9992 2 27858 73.9337 120.0715 0009368 276.8746 83.1363 14.77325013939442 SWIFT 1 28485U 04047A 21018.86176410 .00000872 00000-0 28892-4 0 9997 2 28485 20.5576 316.7184 0010836 261.4186 98.5020 15.04831961885946 FORMOSAT-3 FM6 1 29047U 06011A 21019.19130607 .00000183 00000-0 87866-4 0 9991 2 29047 71.9786 29.6463 0048492 47.8485 312.6755 14.28777350772149 FORMOSAT-3 FM1 1 29048U 06011B 21019.14477451 .00000136 00000-0 69918-4 0 9994 2 29048 71.9675 300.3970 0043357 5.4610 354.6990 14.28748417774606 FORMOSAT-3 FM5 1 29049U 06011C 21018.99411353 .00000268 00000-0 12169-3 0 9997 2 29049 72.0209 113.5821 0033951 30.2758 330.0331 14.28826503770379 FORMOSAT-3 FM3 1 29050U 06011D 21019.05544309 .00000083 00000-0 27935-4 0 9998 2 29050 72.0144 237.5009 0051574 291.9853 67.5824 14.59005894787875 FORMOSAT-3 FM4 1 29051U 06011E 21018.70872065 .00000039 00000-0 31220-4 0 9996 2 29051 72.0057 15.7992 0070692 272.5254 86.7791 14.28861609772902 FORMOSAT-3 FM2 1 29052U 06011F 21018.62287787 .00000083 00000-0 48659-4 0 9992 2 29052 72.0348 90.8256 0040609 349.6884 10.3415 14.28966484770432 CLOUDSAT 1 29107U 06016A 21019.10929598 .00000084 00000-0 26120-4 0 9995 2 29107 98.2601 331.9281 0002001 82.1287 278.0141 14.62293483784010 CALIPSO 1 29108U 06016B 21019.09453416 .00000143 00000-0 37736-4 0 9996 2 29108 98.2581 331.6845 0001183 83.9885 276.1451 14.62493604783855 HINODE (SOLAR-B) 1 29479U 06041A 21018.76047717 .00000063 00000-0 20716-4 0 9992 2 29479 98.1543 34.8161 0018077 53.7797 306.5074 14.65117929765410 SJ-6C 1 29505U 06046A 21019.11938897 .00000030 00000-0 80713-5 0 9993 2 29505 97.8076 38.0090 0005586 48.3844 311.7862 14.95022285775831 SJ-6D 1 29506U 06046B 21019.13328593 .00000494 00000-0 52295-4 0 9999 2 29506 97.8281 38.2118 0003588 114.7030 245.4566 14.93568402775364 AGILE 1 31135U 07013A 21019.07080138 .00002273 00000-0 33893-4 0 9998 2 31135 2.4683 307.4042 0011903 306.3635 53.5321 15.33008558765182 AIM 1 31304U 07015A 21018.66400158 .00000867 00000-0 51595-4 0 9996 2 31304 97.8837 275.1865 0005043 359.3586 0.7637 15.14045373753247 FGRST (GLAST) 1 33053U 08029A 21018.81215389 .00000522 00000-0 13039-4 0 9991 2 33053 25.5836 73.6935 0012202 342.0455 17.9648 15.11445447695863 WISE 1 36119U 09071A 21019.06011854 .00000575 00000-0 21985-4 0 9991 2 36119 97.3039 58.1678 0002443 17.9945 342.1382 15.30537207616791 SDO 1 36395U 10005A 21018.26101128 -.00000076 00000-0 00000-0 0 9999 2 36395 30.6966 117.7003 0000794 245.3415 106.7448 1.00269302 40244 CRYOSAT 2 1 36508U 10013A 21018.83639642 .00000001 00000-0 -47951-6 0 9994 2 36508 92.0187 159.7954 0005761 175.3688 184.7573 14.51909825571482 X-SAT 1 37389U 11015C 21019.10194332 -.00000029 00000-0 52024-5 0 9994 2 37389 98.4063 71.5506 0014582 23.8802 336.3063 14.24386553506982 GCOM-W1 (SHIZUKU) 1 38337U 12025A 21018.82026845 .00000052 00000-0 21585-4 0 9993 2 38337 98.2151 321.6754 0002032 45.4015 7.6479 14.57106717461379 NUSTAR 1 38358U 12031A 21018.14963494 .00000953 00000-0 25774-4 0 9992 2 38358 6.0257 149.3400 0011099 106.2719 253.8631 14.88431895468014 NEOSSAT 1 39089U 13009D 21018.80004039 .00000030 00000-0 25967-4 0 9994 2 39089 98.4498 222.1594 0011526 13.6452 346.5043 14.34542149413420 IRIS 1 39197U 13033A 21019.12189480 .00000098 00000-0 20520-4 0 9995 2 39197 97.9595 204.9137 0026432 251.6750 108.1586 14.78805013407977 HISAKI (SPRINT-A) 1 39253U 13049A 21018.83316710 .00000092 00000-0 34531-4 0 9991 2 39253 29.7182 179.8277 0137167 207.1924 152.1411 13.55237476363240 CASSIOPE 1 39265U 13055A 21018.80865341 .00002830 00000-0 77798-4 0 9991 2 39265 80.9665 89.0752 0654427 32.8195 331.1910 14.31069164378582 STSAT-3 1 39422U 13066G 21019.03244372 .00000634 00000-0 71092-4 0 9990 2 39422 97.4916 46.7855 0022846 191.9863 168.0858 14.89910307389235 SWARM B 1 39451U 13067A 21019.14691196 .00000238 00000-0 88654-5 0 9998 2 39451 87.7539 215.2495 0003931 97.3233 262.8460 15.21897098397337 SWARM A 1 39452U 13067B 21019.10409530 .00000929 00000-0 18638-4 0 9995 2 39452 87.3587 52.1781 0002175 91.9485 268.2022 15.45137443402519 SWARM C 1 39453U 13067C 21019.10401361 .00000923 00000-0 18507-4 0 9999 2 39453 87.3439 52.6973 0002170 92.1282 268.0224 15.45136046402472 BRITE-CA1 (TORONTO) 1 40020U 14033L 21019.06559011 .00000062 00000-0 18663-4 0 9993 2 40020 97.7305 200.9718 0088679 104.4154 256.6913 14.66699230352371 OCO 2 1 40059U 14035A 21018.80705386 .00000035 00000-0 17817-4 0 9996 2 40059 98.2147 322.3867 0001116 74.4222 285.7099 14.57116252348382 BRITE-PL2 (HEWELIUSZ) 1 40119U 14049B 21018.80417702 .00000094 00000-0 17502-4 0 9996 2 40119 97.8909 114.8812 0018595 123.1681 237.1320 14.84589952347731 RESURS P2 1 40360U 14087A 21019.07888219 .00000621 00000-0 21210-4 0 9998 2 40360 97.2373 109.6432 0010617 126.7418 331.8521 15.33937132339369 MMS 1 1 40482U 15011A 21012.29541450 -.00001954 00000-0 00000+0 0 9991 2 40482 32.0950 118.7739 8477888 27.5539 329.4057 0.28531793 11804 MMS 2 1 40483U 15011B 20359.39583333 -.00000873 00000-0 00000+0 0 9991 2 40483 31.9421 119.0520 8478594 26.9368 187.7615 0.28570892 11736 MMS 3 1 40484U 15011C 20359.39583333 -.00000874 00000-0 00000+0 0 9993 2 40484 31.9509 119.0403 8480379 26.9346 187.7683 0.28571045 11730 MMS 4 1 40485U 15011D 20359.39583333 -.00000873 00000-0 00000+0 0 9993 2 40485 31.9433 119.0523 8479943 26.9371 187.7469 0.28570861 11730 ASTROSAT 1 40930U 15052A 21019.07221631 .00000718 00000-0 11728-4 0 9993 2 40930 5.9956 245.3958 0007955 78.1395 281.9624 14.76364980287093 DAMPE 1 41173U 15078A 21019.06866072 .00000060 00000-0 53956-5 0 9994 2 41173 97.3387 14.2772 0012884 205.6950 227.6976 15.23950717283235 PISAT 1 41784U 16059B 21018.85798182 .00000086 00000-0 25563-4 0 9994 2 41784 97.9905 75.1605 0031723 356.8436 3.2561 14.63579565230418 HXMT (HUIYAN) 1 42758U 17034A 21019.07017858 .00000185 00000-0 25126-4 0 9994 2 42758 43.0183 292.9929 0011134 301.3528 189.9764 15.09037212198441 FLYING LAPTOP 1 42831U 17042G 21018.99834784 .00000159 00000-0 21243-4 0 9997 2 42831 97.4909 256.4475 0012644 288.3871 71.5972 14.91223854191411 PICSAT 1 43132U 18004X 21018.76937721 .00001458 00000-0 60921-4 0 9990 2 43132 97.4260 94.6102 0009780 25.5191 334.6528 15.25198385167868 ZHANGZHENG-1 (CSES) 1 43194U 18015C 21019.12624648 .00000945 00000-0 45640-4 0 9993 2 43194 97.4590 147.7793 0014663 74.9620 100.2222 15.21032405164444 ICON 1 44628U 19068A 21018.84235100 .00000472 00000-0 25903-4 0 9999 2 44628 26.9909 68.2199 0019073 149.4286 210.7386 14.91834136 69620 SALSAT 1 46495U 20068K 21018.90572919 .00001023 00000-0 79752-4 0 9998 2 46495 97.6801 317.4182 0016154 217.3198 142.6907 15.03322076 16864